Location: Monroe
(41.9160°N, 83.3980°W)
Time: 16:29:06
(UTC-04:00)

ISS - Visible Passes

Search period start: 30 May 2015 00:00
Search period end: 09 June 2015 00:00
Orbit: 399 x 404 km, 51.6° (Epoch: 30 May)

Date Brightness Start Highest point End Pass type
(mag) Time Alt. Az. Time Alt. Az. Time Alt. Az.
30 May -0.6 01:22:31 16° NW 01:23:51 20° NNW 01:26:19 10° NE visible
30 May -0.1 02:59:08 10° NNW 03:01:09 15° N 03:03:11 10° NE visible
30 May -1.4 04:35:19 10° NW 04:38:18 32° NNE 04:41:18 10° E visible
30 May -3.3 22:50:38 10° SW 22:53:47 53° SE 22:56:59 10° ENE visible
31 May -1.1 00:27:34 10° W 00:30:22 26° NNW 00:33:11 10° NE visible
31 May -0.1 02:05:39 10° NW 02:07:36 15° N 02:09:33 10° NE visible
31 May -0.7 03:42:12 10° NW 03:44:52 23° NNE 03:47:33 10° ENE visible
31 May -3.4 05:18:18 10° WNW 05:21:34 72° SW 05:24:49 10° SE visible
31 May -2.4 21:57:52 10° SSW 22:00:38 27° SE 22:03:27 10° ENE visible
31 May -1.9 23:33:54 10° W 23:36:58 38° NNW 23:40:02 10° NE visible
01 Jun -0.2 01:11:56 10° NW 01:14:03 16° N 01:16:09 10° NNE visible
01 Jun -0.3 02:49:02 10° NNW 02:51:22 18° NNE 02:53:43 10° ENE visible
01 Jun -2.8 04:25:03 10° NW 04:28:17 60° NNE 04:31:31 10° ESE visible
01 Jun -3.0 22:40:24 10° WSW 22:43:37 67° NNW 22:46:52 10° NE visible
02 Jun -0.4 00:18:06 10° WNW 00:20:30 19° NNW 00:22:53 10° NNE visible
02 Jun -0.1 01:55:46 10° NNW 01:57:49 16° N 01:59:53 10° NE visible
02 Jun -1.7 03:31:53 10° NW 03:34:55 35° NNE 03:37:59 10° E visible
02 Jun -2.5 05:08:22 10° WNW 05:11:18 30° SW 05:14:12 10° SSE visible
02 Jun -3.4 21:47:09 10° SW 21:50:21 63° SE 21:53:34 10° ENE visible
02 Jun -0.8 23:24:16 10° WNW 23:26:59 24° NNW 23:29:43 10° NE visible
03 Jun 0.0 01:02:17 10° NW 01:04:14 15° N 01:06:11 10° NE visible
03 Jun -0.9 02:38:44 10° NW 02:41:29 24° NNE 02:44:14 10° ENE visible
03 Jun -3.4 04:14:53 10° WNW 04:18:07 61° SW 04:21:19 10° SE visible
03 Jun -1.5 22:30:31 10° W 22:33:32 34° NNW 22:36:33 10° NE visible
04 Jun -0.1 00:08:36 10° NW 00:10:39 15° N 00:12:41 10° NNE visible
04 Jun -0.5 01:45:33 10° NNW 01:47:58 19° NNE 01:50:23 10° ENE visible
04 Jun -3.1 03:21:34 10° NW 03:24:50 70° NE 03:25:59 36° ESE visible
04 Jun -1.1 05:02:30 10° SSW 05:02:30 10° SSW 05:02:36 10° SSW visible
04 Jun -2.6 21:36:56 10° WSW 21:40:08 58° NNW 21:43:21 10° NE visible
04 Jun -0.3 23:14:45 10° WNW 23:17:04 18° NNW 23:19:22 10° NNE visible
05 Jun -0.2 00:52:17 10° NNW 00:54:23 16° N 00:56:31 10° NE visible
05 Jun -1.6 02:28:21 10° NW 02:30:32 31° NNW 02:30:32 31° NNW visible
05 Jun -0.7 22:20:52 10° WNW 22:23:31 22° NNW 22:26:09 10° NE visible
05 Jun -0.2 23:58:50 10° NW 00:00:47 15° N 00:02:44 10° NE visible
06 Jun -1.2 01:35:10 10° NW 01:37:56 26° NNE 01:37:56 26° NNE visible
06 Jun -0.2 23:05:09 10° NW 23:07:09 15° N 23:09:09 10° NNE visible
07 Jun -0.7 00:41:59 10° NW 00:44:27 20° NNE 00:45:48 16° NE visible
07 Jun -0.5 02:18:01 10° NW 02:18:19 12° NW 02:18:19 12° NW visible
07 Jun -0.4 22:11:18 10° NW 22:13:32 17° N 22:15:46 10° NNE visible
07 Jun -0.4 23:48:42 10° NNW 23:50:52 16° N 23:53:03 10° NE visible
08 Jun -1.2 01:24:44 10° NW 01:26:23 25° NNW 01:26:23 25° NNW visible
08 Jun -0.4 22:55:16 10° NW 22:57:14 15° N 22:59:12 10° NE visible
